Weather in Navbahor

Uzbekistan     40°46′42″N   71°03′54″E
temp.,
°C
wind,
m/s
gust,
m/s
humid.,
%
clouds,
%
prec.,
mm/h
press.,
hPa
HPBL,
m
31 july, sat
sat3123:00+29wsw582366 0.0 1003246
02:00+24nne37360 0.0 1004146
05:00+23ene59380 0.0 1006195
08:00+29e4524100 0.0 1006659
11:00+36ene011498 0.0 10041556
14:00+39sw33127 0.0 10002485
17:00+39wsw53135 0.0 9992128
20:00+32wsw462192 0.0 100087
1 august, sun
sun123:00+29sw342471 0.0 99962
02:00+27nne222896 0.0 99931
05:00+25ne2331100 0.0 100144
08:00+30ene2221100 0.0 1002318
11:00+35wnw321596 0.0 1000983
14:00+40wsw541210 0.0 9971861
17:00+39sw10913100 0.0 9961509
20:00+35wsw61117100 0.0 998415
2 august, mon
mon223:00+30ne232698 0.0 99960
02:00+27se113499 0.0 100020
05:00+26n223593 0.0 100126
08:00+31se12274 0.0 1003490
11:00+37nw23182 0.0 10012142
14:00+40wsw44130 0.0 9982954
17:00+40wsw33137 0.0 9973208
20:00+28nw2339100 0.6 100167
3 august, tue
tue323:00+28ese1138100 0.6 100128
02:00+24ne2248100 0.0 100222
05:00+24ese22493 0.0 100323
08:00+29ene11315 0.0 1005353
11:00+37sw22180 0.0 10031335
14:00+41wsw45100 0.0 10002750
17:00+39sw98115 0.0 10001386
20:00+31wsw342396 0.0 100148
4 august, wed
wed423:00+28ene232651 0.0 100336
02:00+25ne12325 0.0 100423
05:00+24sse22335 0.0 100518
08:00+30ese11229 0.0 1006333
11:00+38ene01132 0.0 10041166
14:00+42sw4580 0.0 10013800
17:00+42wnw3490 0.0 9993159
20:00+34wsw33130 0.0 100040